Regional Weather Roundup
Issued by NWS

Home | Current Version | Previous Version | Graphics & Text | Print | Product List | Glossary On
Versions: 1 2 3 4 5 6 7 8 9 10 11 12 13 14 15 16 17 18 19 20 21 22 23 24 25 26 27 28 29 30 31 32 33 34 35 36 37 38 39 40 41 42 43 44 45 46 47 48 49 50
000
ASUS43 KOAX 061610
RWRNE

WEATHER ROUNDUP FOR NEBRASKA
NATIONAL WEATHER SERVICE OMAHA NE
1100 AM CDT MON JUL 06 2015

NOTES: SATELLITE DATA IS BEING USED TO AUGMENT CLOUD COVER ABOVE
       12000 FEET.
       "FAIR" INDICATES FEW OR NO CLOUDS BELOW 12,000 FEET WITH NO
       SIGNIFICANT WEATHER AND/OR OBSTRUCTIONS TO VISIBILITY.

  * THESE STATIONS DO NOT REPORT WEATHER SUCH AS RAIN...SNOW OR FOG.

NEZ001>004-019>022-054>056-061700-
NEBRASKA PANHANDLE

CITY           SKY/WX    TMP DP  RH WIND       PRES   REMARKS
SCOTTSBLUFF    CLOUDY    62  55  77 N13       30.24R HAZE
ALLIANCE       PTSUNNY   64  55  72 N17       30.22R HAZE
CHADRON        CLOUDY    63  58  83 N7        30.24R HAZE
KIMBALL          N/A    N/A N/A N/A MISG        N/A
SIDNEY         CLOUDY    64  55  72 NE15G26   30.22R HAZE
$$

NEZ057>060-069>072-079>082-061700-
SOUTHWEST NEBRASKA

CITY           SKY/WX    TMP DP  RH WIND       PRES   REMARKS
NORTH PLATTE   CLOUDY    67  58  72 N16G23    30.09R
IMPERIAL       CLOUDY    67  58  72 N17G29    30.13R
LEXINGTON      CLOUDY    69  63  83 NE17G29   30.03R
MCCOOK         CLOUDY    69  62  78 N22G30    30.05R
OGALLALA       CLOUDY    67  58  74 N21       30.14S HAZE
$$

NEZ005>010-023>029-035>040-094-061700-
NORTH CENTRAL NEBRASKA

CITY           SKY/WX    TMP DP  RH WIND       PRES   REMARKS
VALENTINE      CLOUDY    69  57  65 N14       30.13R
AINSWORTH      CLOUDY    67  62  83 N21G26    30.10R HAZE
BROKEN BOW     CLOUDY    68  62  81 N16G24    30.05R HAZE
O`NEILL        CLOUDY    65  62  89 N13G21    30.04R FOG
ORD            CLOUDY    67  63  87 N20G28    30.01R
THEDFORD       PTSUNNY   68  59  73 N20G25    30.12R HAZE
$$

NEZ041-046>049-061>064-073>077-083>087-061700-
SOUTH CENTRAL NEBRASKA

CITY           SKY/WX    TMP DP  RH WIND       PRES   REMARKS
GRAND ISLAND   LGT RAIN  69  66  90 N15       29.98R
AURORA         CLOUDY    74  71  92 N13       29.96R
HASTINGS       CLOUDY    72  69  90 N12       29.97R
HEBRON         DRIZZLE   76  71  84 N8        29.91R
HOLDREGE       CLOUDY    69  64  84 N22       30.00R
KEARNEY *      CLOUDY    70  63  78 N21       30.00R
YORK           CLOUDY    73  70  88 NE12      29.95R
$$

NEZ011>018-030>034-042>045-061700-
NORTHEAST NEBRASKA

CITY           SKY/WX    TMP DP  RH WIND       PRES   REMARKS
NORFOLK        CLOUDY    68  66  93 N25G32    29.95R
ALBION         FAIR      69  63  80 N17G25    29.98R
BLAIR          CLOUDY    73  70  91 SW3       29.91R
FREMONT        CLOUDY    75  71  87 CALM      29.92R
TEKAMAH        LGT RAIN  75  72  90 CALM      29.90R
WAYNE          CLOUDY    69  68  94 NW12G20   29.94R
$$

NEZ050>053-065>068-078-088>093-061700-
SOUTHEAST NEBRASKA

CITY           SKY/WX    TMP DP  RH WIND       PRES   REMARKS
LINCOLN        CLOUDY    74  71  91 N9        29.92R
OMAHA EPPLEY   CLOUDY    75  72  90 S9        29.89R
BEATRICE       PTSUNNY   80  72  76 SE3       29.88S
FALLS CITY     FAIR      83  72  69 S12       29.86F
NEBRASKA CITY  FAIR      77  69  77 N6        29.89R
PLATTSMOUTH    CLOUDY    74  71  88 CALM      29.90R
$$

NEZ044-045-051>053-067-061700-
OMAHA AREA

CITY           SKY/WX    TMP DP  RH WIND       PRES   REMARKS
OMAHA EPPLEY   CLOUDY    75  72  90 S9        29.89R
BLAIR          CLOUDY    73  70  91 SW3       29.91R
FREMONT        CLOUDY    75  71  87 CALM      29.92R
MILLARD        CLOUDY    75  71  89 CALM      29.90R
OFFUTT AFB     CLOUDY    76  72  87 E3        29.89R
PLATTSMOUTH    CLOUDY    74  71  88 CALM      29.90R
WAHOO          CLOUDY    74  71  90 SW3       29.92R
$$



USA.gov is the U.S. government's official web portal to all federal, state and local government web resources and services.